Flag for U.S.A. Weather past 2 weeks in Kodiak, Alaska, U.S.A.

Now
28 °F

Clear.


Feels Like: 22 °F
Forecast: 27 / 42 °F
Wind: 6 mph from West

Location: Kodiak Weather Reporting Station

Current Time: Feb 26, 2015 at 11:14:45 PM

Latest Report: Feb 26, 2015 at 10:53 PM


Visibility: 10 mi

Pressure: 30.53 "Hg

Humidity: 89%

Dew point: 25 °F

Location of KodiakLocation

Historic Weather in Kodiak — Graph

°F

Kodiak temperature yesterday

Maximum temperature yesterday: 44 °F (at 1:53 PM)
Minimum temperature yesterday: 35 °F (at 9:53 PM)
Average temperature yesterday: 40 °F

Past Weeks' High & Low Weather Summary

 TemperatureHumidityPressure
High44 °F (Feb 16, 11:53 AM)100% (Feb 11, 9:00 PM)30.56 "Hg (Feb 11, 9:00 PM)
Low24 °F (Feb 19, 5:53 AM)45% (Feb 23, 3:53 PM)29.11 "Hg (Feb 16, 9:53 AM)
Average38 °F87%29.89 "Hg
* Reported Feb 11 9:00 PM — Feb 26 9:53 PM, Kodiak, Weather by CustomWeather, © 2015

Note: Actual official high and low records may vary slightly from our data, if they occured in-between our weather recording intervals... More about our weather records

Advertising

Kodiak weather history for previous 24 hours

 ConditionsComfort  
Time TempWeatherWind HumidityBarometerVisibility
9:53 PM
Thu, Feb 26
29 °FClear.5 mph89%30.53 "Hg10 mi
8:53 PM30 °FClear.7 mph85%30.54 "Hg10 mi
7:53 PM31 °FClear.5 mph89%30.54 "Hg10 mi
6:53 PM33 °FClear.6 mph85%30.53 "Hg10 mi
5:53 PM39 °FSunny.No wind79%30.54 "Hg10 mi
4:53 PM40 °FSunny.6 mph77%30.54 "Hg10 mi
3:53 PM41 °FSunny.6 mph70%30.54 "Hg10 mi
2:53 PM40 °FSunny.7 mph77%30.55 "Hg10 mi
1:53 PM40 °FSunny.7 mph77%30.55 "Hg10 mi
12:53 PM39 °FSunny.6 mph73%30.55 "Hg10 mi
11:53 AM39 °FSunny.6 mph65%30.55 "Hg10 mi
10:53 AM37 °FSunny.3 mph70%30.56 "Hg10 mi
9:53 AM35 °FSunny.7 mph75%30.56 "Hg10 mi
8:53 AM33 °FPassing clouds.3 mph75%30.55 "Hg10 mi
7:53 AM28 °FPassing clouds.7 mph89%30.54 "Hg10 mi
6:53 AM31 °FClear.3 mph82%30.53 "Hg10 mi
5:53 AM32 °FClear.7 mph79%30.51 "Hg10 mi
4:53 AM35 °FClear.8 mph72%30.51 "Hg10 mi
3:53 AM34 °FClear.6 mph76%30.51 "Hg10 mi
2:53 AM34 °FClear.3 mph76%30.51 "Hg10 mi
1:53 AM36 °FClear.9 mph73%30.50 "Hg10 mi
12:53 AM37 °FClear.No wind67%30.50 "Hg10 mi
11:53 PM
Wed, Feb 25
37 °FClear.8 mph70%30.50 "Hg10 mi
Weather by CustomWeather, © 2015

See weather overviewHow to use our weather pages